THOR ABLESTAR DEB, 120

Orbit data source: Space-Track

THOR ABLESTAR DEB, 120 is space debris in LEO originally from a launch on Thu, 29 Jun 1961 UTC launched from the Air Force Eastern Test Range (AFETR). Debris objects in space refer to the collection of defunct objects orbiting the Earth. Examples of debris include non-operational satellites, rocket bodies, and fragments generated from explosions, collisions, or faulty payload assembly.

Loading next visibility...
Identifier
120, 1961-015E
Orbit
LEO
Country
Flag of USUS
Related business
Manufacturer
Unknown
Mission
Spacecraft
Bus & Motor
Unknown
Mass
Unknown
Launch date (UTC)
1961-06-29 (65 years ago)
Launch vehicle
Unknown
Launch site
Air Force Eastern Test Range (AFETR)
Object type
Payload
Rocket body
Debris
Shape & HBR
Unknown shape, 0.2 m
Radar Cross Section
Medium (>0.1 m² and <1 m²)

Expand to show TLE details & history
Last TLE update: 5 days ago

TLE from 5 days ago
0 THOR ABLESTAR DEB
1   120U 61015E   26154.24043850  .00001014  00000-0  40258-3 0  9998
2   120  66.7041 108.0216 0109146  10.9998 349.3448 14.29574887346333
Epoch: 2026-06-03T05:46Z
TLE epoch observation values (Epoch: 2026-06-03T05:46:13.886Z)
Latitude
-0.00003°
Longitude
129.76183°
Altitude
718.358 km
Speed
7.537 km/s
True Right ascension
07h 12m 05s
True Declination
0° 00' 00"
Sunlit
Object was in daylight at epoch
Visualization orbit readout
Latitude
Unknown
Longitude
Unknown
Altitude
Unknown
Speed
Unknown
Apparent Right ascension
Unknown
Apparent Declination
Unknown
Sunlit
N/A
Visualization observer readout
Local Sidereal Time
12:35:02
Azimuth
Unknown
Elevation
Unknown
Doppler factor
Unknown
Orbital elements
Apogee altitude
869.781 km
Perigee altitude
713.273 km
Semi-major axis
7,169.664 km
Eccentricity
0.01091
Inclination
66.7041°
RAAN
108.0216°
Arg. of periapsis
10.9998°
True anomaly
349.1104°
Mean anomaly
349.3448°
Eccentric anomaly
349.22792°
Mean motion
3.57516 °/min
Orbital period
100.69 mins
BSTAR
0.00040258
Loading maneuver chart data...
Computing Atmospheric mass density...

Documentation

Showing up to 5 results
|